Weather History for KMGC - January, 2013

Change the Weather History Date:

Tuesday, January 22, 2013

  Actual Average (KVPZ) Record (KVPZ)
Temperature  
Mean Temperature 10 °F 23 °F  
Max Temperature 14 °F 31 °F 55 °F (2002)
Min Temperature 6 °F 16 °F -7 °F (2000)
Degree Days  
Heating Degree Days 55 42  
Month to date heating degree days 915  
Since 1 July heating degree days 3317  
Cooling Degree Days 0 0  
Month to date cooling degree days 0  
Year to date cooling degree days 0  
Moisture  
Dew Point 0 °F    
Average Humidity 65    
Maximum Humidity 79    
Minimum Humidity 52    
Precipitation  
Precipitation 0.00 in 0.06 in 0.35 in (2012)
Month to date precipitation 1.21  
Year to date precipitation 1.21  
Sea Level Pressure  
Sea Level Pressure 30.30 in    
Wind  
Wind Speed 10 mph (West)    
Max Wind Speed 13 mph    
Max Gust Speed 22 mph    
Visibility 7 miles    
Events Snow    
T = Trace of Precipitation, MM = Missing Value Source: NWS Daily Summary

Daily Weather History Graph

Daily Weather History Graph

Search for Another Location

Airport or City:

Trip Planner

Search our weather history database for the weather conditions in past years. The results will help you decide how hot, cold, wet, or windy it might be!

Date:

Astronomy

Jan. 22, 2013 Rise Set
Actual Time 7:07 AM CST 4:50 PM CST
Civil Twilight 6:37 AM CST 5:20 PM CST
Nautical Twilight 6:03 AM CST 5:54 PM CST
Astronomical Twilight 5:30 AM CST 6:27 PM CST
Moon 1:12 PM CST (1/22) 3:29 AM CST (1/22)
Length of Visible Light 10h 43m
Length of Day
9h 42m
Waxing Gibbous, 83% of the Moon is Illuminated
Jan 22
Waxing Gibbous
Jan 26
Full
Feb 3
Last Quarter
Feb 10
New
Feb 17
First Quarter

Hourly Weather History & Observations

Time (CST) Temp. Windchill Dew Point Humidity Pressure Visibility Wind Dir Wind Speed Gust Speed Precip Events Conditions
12:15 AM 8.6 °F -6.3 °F -2.2 °F 62% 30.23 in 10.0 mi WNW 11.5 mph 20.7 mph N/A Snow Light Snow
12:35 AM 8.6 °F -7.0 °F 1.4 °F 73% 30.22 in 5.0 mi West 12.7 mph 19.6 mph N/A Snow Light Snow
12:55 AM 8.6 °F -6.3 °F -0.4 °F 67% 30.23 in 5.0 mi WNW 11.5 mph - N/A Snow Light Snow
1:15 AM 8.6 °F -6.3 °F -0.4 °F 67% 30.23 in 5.0 mi West 11.5 mph 21.9 mph N/A Snow Light Snow
1:35 AM 8.6 °F -5.5 °F 1.4 °F 73% 30.24 in 4.0 mi West 10.4 mph 18.4 mph N/A Snow Light Snow
1:55 AM 8.6 °F -5.5 °F -0.4 °F 67% 30.24 in 7.0 mi WNW 10.4 mph 21.9 mph N/A Snow Light Snow
2:15 AM 8.6 °F -3.7 °F 1.4 °F 73% 30.24 in 3.0 mi WNW 8.1 mph 16.1 mph N/A Snow Light Snow
2:35 AM 8.6 °F -5.5 °F -0.4 °F 67% 30.25 in 7.0 mi West 10.4 mph - N/A Snow Light Snow
2:55 AM 8.6 °F -5.5 °F -0.4 °F 67% 30.25 in 10.0 mi WNW 10.4 mph 17.3 mph N/A Snow Light Snow
3:15 AM 8.6 °F -5.5 °F -0.4 °F 67% 30.25 in 5.0 mi WNW 10.4 mph 19.6 mph N/A Snow Light Snow
3:35 AM 6.8 °F -8.6 °F -0.4 °F 72% 30.26 in 7.0 mi WNW 11.5 mph 17.3 mph N/A Snow Light Snow
3:55 AM 8.6 °F -5.5 °F -0.4 °F 67% 30.26 in 7.0 mi West 10.4 mph 16.1 mph N/A Snow Light Snow
4:15 AM 6.8 °F -6.9 °F -0.4 °F 72% 30.26 in 5.0 mi West 9.2 mph - N/A Snow Light Snow
4:35 AM 6.8 °F -7.8 °F -0.4 °F 72% 30.27 in 7.0 mi West 10.4 mph - N/A   Overcast
4:55 AM 6.8 °F -5.9 °F -0.4 °F 72% 30.27 in 7.0 mi West 8.1 mph 18.4 mph N/A   Overcast
5:15 AM 6.8 °F -8.6 °F -0.4 °F 72% 30.27 in 4.0 mi West 11.5 mph - N/A Snow Light Snow
5:35 AM 6.8 °F -8.6 °F 1.4 °F 79% 30.28 in 2.0 mi West 11.5 mph 19.6 mph N/A Snow Light Snow
5:55 AM 6.8 °F -5.9 °F 1.4 °F 79% 30.28 in 2.0 mi West 8.1 mph - N/A Snow Light Snow
6:15 AM 6.8 °F -4.8 °F 1.4 °F 79% 30.29 in 4.0 mi WNW 6.9 mph - N/A Snow Light Snow
6:35 AM 6.8 °F -6.9 °F -0.4 °F 72% 30.30 in 5.0 mi West 9.2 mph - N/A Snow Light Snow
6:55 AM 6.8 °F -6.9 °F -0.4 °F 72% 30.30 in 4.0 mi West 9.2 mph - N/A Snow Light Snow
7:15 AM 6.8 °F -6.9 °F -0.4 °F 72% 30.31 in 4.0 mi West 9.2 mph 16.1 mph N/A Snow Light Snow
7:35 AM 6.8 °F -5.9 °F -0.4 °F 72% 30.31 in 2.5 mi West 8.1 mph - N/A Snow Light Snow
7:55 AM 6.8 °F -5.9 °F 1.4 °F 79% 30.32 in 1.2 mi West 8.1 mph - N/A Snow Light Snow
8:15 AM 6.8 °F -5.9 °F 1.4 °F 79% 30.32 in 1.2 mi NW 8.1 mph - N/A Snow Light Snow
8:35 AM 6.8 °F -5.9 °F -0.4 °F 72% 30.33 in 5.0 mi West 8.1 mph - N/A Snow Light Snow
8:55 AM 6.8 °F -4.8 °F -0.4 °F 72% 30.34 in 3.0 mi West 6.9 mph - N/A Snow Light Snow
9:15 AM 6.8 °F -7.8 °F -0.4 °F 72% 30.34 in 3.0 mi West 10.4 mph - N/A Snow Light Snow
9:35 AM 8.6 °F -2.6 °F -0.4 °F 67% 30.35 in 4.0 mi WNW 6.9 mph - N/A   Haze
9:55 AM 8.6 °F -2.6 °F 1.4 °F 73% 30.35 in 2.5 mi West 6.9 mph - N/A Snow Light Snow
10:15 AM 8.6 °F -2.6 °F 3.2 °F 79% 30.35 in 1.0 mi West 6.9 mph - N/A Snow Light Snow
10:35 AM 8.6 °F -3.7 °F 1.4 °F 73% 30.35 in 1.2 mi West 8.1 mph - N/A Snow Light Snow
10:55 AM 8.6 °F -6.3 °F 1.4 °F 73% 30.35 in 2.5 mi West 11.5 mph - N/A Snow Light Snow
11:15 AM 8.6 °F -1.3 °F 1.4 °F 73% 30.34 in 3.0 mi West 5.8 mph 17.3 mph N/A   Haze
11:55 AM 10.4 °F -1.5 °F 3.2 °F 73% 30.33 in 1.5 mi West 8.1 mph 20.7 mph N/A Snow Light Snow
12:15 PM 12.2 °F -0.2 °F 1.4 °F 62% 30.33 in 10.0 mi West 9.2 mph - N/A   Overcast
12:35 PM 8.6 °F -3.7 °F 1.4 °F 73% 30.33 in 2.0 mi WNW 8.1 mph - N/A Snow Light Snow
12:55 PM 12.2 °F -0.2 °F -0.4 °F 57% 30.32 in 10.0 mi West 9.2 mph 17.3 mph N/A   Mostly Cloudy
1:15 PM 10.4 °F -1.5 °F -2.2 °F 57% 30.32 in 10.0 mi West 8.1 mph - N/A   Mostly Cloudy
1:35 PM 12.2 °F -1.8 °F -0.4 °F 57% 30.32 in 10.0 mi West 11.5 mph - N/A   Mostly Cloudy
1:55 PM 12.2 °F -0.2 °F -2.2 °F 53% 30.31 in 10.0 mi West 9.2 mph 17.3 mph N/A   Scattered Clouds
2:15 PM 12.2 °F -0.2 °F -2.2 °F 53% 30.31 in 10.0 mi WSW 9.2 mph 17.3 mph N/A   Mostly Cloudy
2:35 PM 12.2 °F 0.7 °F -0.4 °F 57% 30.31 in 10.0 mi West 8.1 mph 19.6 mph N/A   Mostly Cloudy
2:55 PM 12.2 °F -0.2 °F -2.2 °F 53% 30.31 in 10.0 mi West 9.2 mph - N/A   Overcast
3:15 PM 12.2 °F -1.8 °F -0.4 °F 57% 30.31 in 10.0 mi WSW 11.5 mph 17.3 mph N/A   Overcast
3:35 PM 12.2 °F -0.2 °F -0.4 °F 57% 30.31 in 10.0 mi West 9.2 mph 17.3 mph N/A   Overcast
3:55 PM 12.2 °F -0.2 °F -0.4 °F 57% 30.31 in 10.0 mi WSW 9.2 mph - N/A   Overcast
4:15 PM 12.2 °F -1.0 °F -2.2 °F 53% 30.31 in 10.0 mi West 10.4 mph 16.1 mph N/A   Overcast
4:35 PM 10.4 °F -0.4 °F -2.2 °F 57% 30.31 in 10.0 mi WSW 6.9 mph - N/A   Overcast
4:55 PM 10.4 °F -1.5 °F -2.2 °F 57% 30.31 in 10.0 mi WSW 8.1 mph - N/A   Overcast
5:15 PM 10.4 °F -2.4 °F -4.0 °F 52% 30.30 in 10.0 mi SW 9.2 mph - N/A   Overcast
5:35 PM 10.4 °F -2.4 °F -4.0 °F 52% 30.30 in 10.0 mi SW 9.2 mph - N/A   Overcast
5:55 PM 10.4 °F -1.5 °F -4.0 °F 52% 30.30 in 10.0 mi SW 8.1 mph - N/A   Overcast
6:15 PM 10.4 °F -0.4 °F -2.2 °F 57% 30.30 in 10.0 mi SW 6.9 mph - N/A   Overcast
6:35 PM 10.4 °F -0.4 °F -0.4 °F 62% 30.30 in 10.0 mi SW 6.9 mph - N/A   Overcast
6:55 PM 12.2 °F 2.9 °F -0.4 °F 57% 30.30 in 10.0 mi West 5.8 mph - N/A   Overcast
7:15 PM 12.2 °F 0.7 °F -0.4 °F 57% 30.30 in 10.0 mi West 8.1 mph - N/A   Overcast
7:35 PM 12.2 °F -1.0 °F -0.4 °F 57% 30.29 in 10.0 mi WSW 10.4 mph 16.1 mph N/A   Overcast
7:55 PM 12.2 °F -1.0 °F 1.4 °F 62% 30.29 in 10.0 mi West 10.4 mph 20.7 mph N/A   Overcast
8:15 PM 12.2 °F -1.0 °F 1.4 °F 62% 30.29 in 10.0 mi West 10.4 mph - N/A   Overcast
8:35 PM 12.2 °F 1.7 °F 1.4 °F 62% 30.30 in 10.0 mi West 6.9 mph - N/A   Overcast
8:55 PM 14.0 °F 1.2 °F 1.4 °F 57% 30.30 in 10.0 mi West 10.4 mph - N/A   Overcast
9:15 PM 14.0 °F 5.1 °F 1.4 °F 57% 30.30 in 10.0 mi West 5.8 mph - N/A   Overcast
9:35 PM 14.0 °F 2.9 °F 1.4 °F 57% 30.30 in 10.0 mi West 8.1 mph - N/A   Overcast
9:55 PM 14.0 °F 2.9 °F 1.4 °F 57% 30.30 in 10.0 mi West 8.1 mph - N/A   Overcast
10:15 PM 14.0 °F 2.9 °F 3.2 °F 62% 30.30 in 10.0 mi West 8.1 mph - N/A   Overcast
10:35 PM 14.0 °F 2.9 °F 1.4 °F 57% 30.31 in 10.0 mi WNW 8.1 mph - N/A   Overcast
10:55 PM 14.0 °F 3.9 °F 1.4 °F 57% 30.31 in 10.0 mi WNW 6.9 mph - N/A   Overcast
11:15 PM 14.0 °F 3.9 °F 1.4 °F 57% 30.31 in 10.0 mi WNW 6.9 mph - N/A   Overcast
11:35 PM 14.0 °F 3.9 °F 1.4 °F 57% 30.31 in 10.0 mi WNW 6.9 mph - N/A   Overcast
11:55 PM 12.2 °F 2.9 °F 1.4 °F 62% 30.31 in 10.0 mi WNW 5.8 mph - N/A   Mostly Cloudy